[[{"header":{"parameterUnit":"m.s-1","parameterCategory":1,"la1":30.2992,"la2":30.254,"lo1":-89.0895,"lo2":-89.0443,"dy":0.0025,"dx":0.0025,"nx":19,"ny":19,"refTime":"2026-03-29T09:00:00:Z","depth":0,"parameterNumber":2,"parameterNumberName":"U-component_of_WINDS"},"data":[0,0,0,-4.2151,-4.2154,-4.2297,-4.2297,-4.2483,-4.2485,0,0,0,0,0,0,0,0,0,0,0,-4.211,-4.2111,-4.2151,-4.2154,-4.2297,-4.2297,-4.2483,-4.2485,0,0,0,0,0,0,0,0,0,0,0,-4.2109,-4.2111,-4.2112,-4.2155,-4.2296,-4.2297,-4.2482,-4.2374,0,0,0,0,0,0,0,0,0,0,-4.2235,-4.2198,-4.2111,-4.2113,-4.2156,-4.2296,-4.2297,-4.2369,-4.2381,-4.242,0,-4.2454,0,-4.2472,-4.2497,-4.2498,0,0,0,-4.2154,-4.2188,-4.2225,-4.2113,-4.2157,-4.2296,-4.2232,-4.2375,-4.2389,-4.2436,-4.2457,-4.2464,-4.2475,-4.2499,-4.25,-4.2724,-4.2725,0,0,-4.2146,-4.2137,-4.2216,-4.2234,-4.2211,-4.2228,-4.2237,-4.2383,-4.2406,-4.2457,-4.2468,-4.2479,-4.25,-4.2501,-4.2723,-4.2725,0,0,0,-4.2123,-4.2131,-4.2165,-4.2226,-4.2252,-4.2232,-4.2242,-4.24,-4.2411,-4.247,-4.2481,-4.2501,-4.2503,-4.2722,-4.2724,-4.2766,0,0,0,-4.2119,-4.2118,-4.2161,-4.2157,-4.2249,-4.2327,-4.2255,-4.2401,-4.2418,-4.248,-4.2501,-4.2505,-4.2721,-4.2723,-4.2762,-4.2786,0,0,0,-4.21,-4.2116,-4.2137,-4.2156,-4.2217,-4.2325,-4.2345,-4.2405,-4.2425,-4.2498,-4.2506,-4.272,-4.2723,-4.2759,-4.2781,-4.2841,0,0,0,-4.2078,-4.2174,-4.2137,-4.2249,-4.2216,-4.235,-4.2344,-4.2446,-4.2514,-4.2502,-4.2721,-4.2724,-4.2758,-4.2778,-4.2837,-4.2887,-4.2908,0,0,-4.2194,-4.2188,-4.2254,-4.2226,-4.2364,-4.2329,-4.2475,-4.2547,-4.2564,-4.267,-4.2676,-4.2763,-4.2781,-4.284,-4.3031,-4.3048,0,0,0,-4.2288,-4.2335,-4.2374,-4.2437,-4.2494,-4.2544,-4.2595,-4.2622,-4.2712,-4.2616,-4.2803,-4.2814,-4.2849,-4.2873,-4.2886,-4.2916,-4.2735,-4.2735,-4.2735,-4.2438,-4.2452,-4.2562,-4.2594,-4.2656,-4.2707,-4.2759,-4.2803,-4.2802,-4.2846,-4.2876,-4.2991,-4.3019,-4.3029,-4.306,-4.2907,-4.2907,-4.2907,-4.2907,-4.2607,-4.2674,-4.2669,-4.2773,-4.2788,-4.2877,-4.293,-4.2926,-4.301,-4.2969,-4.3001,-4.2952,-4.3046,-4.3074,-4.291,-4.291,-4.2909,-4.2909,-4.2909,-4.2704,-4.2738,-4.2769,-4.2861,-4.2932,-4.2962,-4.3042,-4.3055,-4.3067,-4.3098,-4.3131,-4.313,-4.3128,-4.3113,-4.3114,-4.3114,-4.3115,-4.3115,-4.3115,-4.2791,-4.2824,-4.2889,-4.2957,-4.2999,-4.3056,-4.3108,-4.315,-4.3199,-4.3202,-4.3202,-4.3194,-4.3054,-4.3016,-4.3121,-4.312,-4.3119,-4.3119,-4.3118,-4.2952,-4.2917,-4.3018,-4.306,-4.314,-4.3207,-4.3223,-4.3306,-4.3343,-4.3382,-4.3369,-4.3264,-4.3258,-4.3247,-4.3216,-4.3367,-4.3367,-4.3367,-4.3367,-4.3032,-4.303,-4.3135,-4.32,-4.3267,-4.329,-4.3403,-4.3445,-4.3484,-4.3507,-4.3488,-4.3449,-4.3438,-4.3439,-4.3424,-4.3395,-4.3587,-4.3588,-4.3588,-4.313,-4.3136,-4.3229,-4.3264,-4.3327,-4.3381,-4.3488,-4.3564,-4.3601,-4.3597,-4.3525,-4.3516,-4.3453,-4.3432,-4.3424,-4.34,-4.3347,0,0]},{"header":{"parameterUnit":"m.s-1","parameterCategory":1,"la1":30.2992,"la2":30.254,"lo1":-89.0895,"lo2":-89.0443,"dy":0.0025,"dx":0.0025,"nx":19,"ny":19,"refTime":"2026-03-29T09:00:00:Z","depth":0,"parameterNumber":3,"parameterNumberName":"V-component_of_WINDS"},"data":[0,0,0,2.8829,2.8832,2.8983,2.8983,2.9172,2.9173,0,0,0,0,0,0,0,0,0,0,0,2.8781,2.8782,2.8829,2.8833,2.8982,2.8983,2.9171,2.9173,0,0,0,0,0,0,0,0,0,0,0,2.878,2.8781,2.8783,2.8833,2.8982,2.8983,2.9171,2.9059,0,0,0,0,0,0,0,0,0,0,2.8914,2.8865,2.8781,2.8783,2.8834,2.8982,2.8983,2.9054,2.9066,2.9102,0,2.913,0,2.9155,2.9185,2.9186,0,0,0,2.8836,2.8855,2.8899,2.8783,2.8835,2.8982,2.8916,2.9061,2.9075,2.9118,2.9133,2.914,2.9158,2.9187,2.9188,2.9376,2.9377,0,0,2.8828,2.8806,2.8889,2.8908,2.8882,2.8911,2.892,2.9069,2.9085,2.9133,2.9144,2.9161,2.9188,2.9189,2.9376,2.9376,0,0,0,2.8802,2.88,2.884,2.89,2.8927,2.8915,2.8926,2.9078,2.9093,2.9147,2.9163,2.9189,2.9191,2.9375,2.9376,2.939,0,0,0,2.8797,2.8785,2.8837,2.8825,2.8924,2.9004,2.8932,2.9083,2.9101,2.9162,2.9189,2.9193,2.9374,2.9375,2.9388,2.9401,0,0,0,2.8772,2.8782,2.8802,2.8823,2.8887,2.9002,2.9026,2.9087,2.9111,2.9186,2.9193,2.9374,2.9375,2.9386,2.9398,2.9445,0,0,0,2.874,2.8812,2.8802,2.8889,2.8885,2.9009,2.9025,2.9119,2.9185,2.919,2.9374,2.9376,2.9386,2.9396,2.9443,2.9481,2.9495,0,0,2.8819,2.8821,2.8874,2.8869,2.8989,2.8988,2.9112,2.9194,2.9222,2.9324,2.9329,2.9389,2.9398,2.9445,2.9577,2.9588,0,0,0,2.8892,2.893,2.8967,2.9028,2.9093,2.915,2.9215,2.9246,2.9334,2.9269,2.9419,2.9425,2.9454,2.9473,2.9482,2.9509,2.9384,2.9383,2.9383,2.8972,2.9004,2.9095,2.9145,2.9205,2.9273,2.9325,2.9379,2.9393,2.9428,2.9458,2.9535,2.9557,2.9563,2.9591,2.9481,2.9481,2.9481,2.9481,2.9091,2.9151,2.9169,2.9263,2.9297,2.9378,2.9447,2.9454,2.9536,2.9514,2.9541,2.9514,2.9574,2.96,2.9482,2.9482,2.9482,2.9482,2.9482,2.9148,2.9182,2.9218,2.9312,2.9382,2.9431,2.9508,2.9536,2.9564,2.959,2.9627,2.9626,2.9631,2.9605,2.9606,2.9606,2.9606,2.9606,2.9607,2.9193,2.9233,2.9294,2.9369,2.9414,2.9476,2.9546,2.9592,2.9649,2.9664,2.9664,2.9676,2.9573,2.9547,2.9611,2.961,2.9609,2.9609,2.9609,2.9303,2.9283,2.9377,2.9421,2.9514,2.9582,2.9617,2.9707,2.9749,2.9787,2.9794,2.9713,2.9717,2.971,2.9689,2.9786,2.9786,2.9786,2.9786,2.9352,2.9356,2.946,2.953,2.9602,2.9643,2.9752,2.9808,2.9863,2.9891,2.9882,2.9856,2.9847,2.9857,2.9847,2.9828,2.9957,2.9957,2.9958,2.9422,2.9436,2.9521,2.9573,2.9648,2.9712,2.9815,2.9897,2.9955,2.9965,2.9915,2.9908,2.9866,2.9851,2.9859,2.9843,2.9808,0,0]}]]